{"data":{"norad_id":68401,"epoch":"2026-05-25T00:00:02.000160Z","epoch_age_seconds":65112,"freshness":"FRESH","line1":"1 68401U 26063X   26145.00002315 -.00037785  00000+0 -11730-2 0  9990","line2":"2 68401  97.2848 287.5156 0001123 100.7405  12.2754 15.33468309  6028","mean_motion":15.33468309,"eccentricity":0.0001123,"inclination_deg":97.2848,"raan_deg":287.5156,"arg_perigee_deg":100.7405,"mean_anomaly_deg":12.2754,"bstar":-0.001173,"rev_number":602,"period_min":93.904777265273,"perigee_km":464.70528667631,"apogee_km":466.24236166742,"semimajor_km":6843.6108241719,"source":"CELESTRAK","updated_at":"2026-05-25T13:38:21.951196Z"}}